Terminal Aerodrome Forecast
Issued by NWS Sterling, VA

Current Version | Previous Version | Text Only | Print | Product List | Glossary Off
Versions: 1 2 3 4 5 6 7 8 9 10 11 12 13 14 15 16 17 18 19 20 21

000
FTUS41 KLWX 161100
TAFIAD
TAF
KIAD 161139Z 1612/1718 30005KT P6SM BKN080
     FM161400 32008G16KT P6SM SCT080
     FM162300 VRB04KT P6SM SCT080
     FM171200 02004KT P6SM SCT060=

USA.gov is the U.S. government's official web portal to all federal, state and local government web resources and services.